Location: Arbon
(43.0005°N, 0.7472°E)
Time: 10:13:13
(UTC+00:00)

Vanguard 2 Rocket - Pass Details

Date: 29 November 2020
Orbit: 554 x 3325 km, 32.9° (Epoch: 21 January)

Event Time Altitude Azimuth Distance (km) Brightness Sun altitude
Rises 08:28:06 0° 244° (WSW) 7,154 11.3 11.1°
Reaches altitude 10° 08:32:54 10° 240° (WSW) 6,243 11.0 11.7°
Maximum altitude 08:52:24 57° 170° (S) 3,433 10.6 14.1°
Drops below altitude 10° 09:07:09 10° 97° (E) 4,876 11.4 15.9°
Sets 09:10:22 0° 94° (E) 5,567 11.5 16.2°
